Powrót do katalogu

CZ-4 DEB

AktywnySSO
NORAD 26443·DEBRIS·🇨🇳 China

Wystrzelony Oct 14, 1999 z Taiyuan Satellite Launch Center

Loading…

Następne Przeloty (najbliższe 24 godziny)

TLE

ŚwieżeSource: Space-Track

Epoka: Sep 14, 2026, 03:01 UTC

1 26443U 99057KQ  26257.12602294  .00000466  00000-0  14485-3 0  9998
2 26443  98.6130 318.9616 0092299 187.7644 202.5625 14.43354189386371

Śledź CZ-4 DEB w czasie rzeczywistym z AllMySat

Download on the App Store